Regional Weather Roundup
Issued by NWS San Diego, CA

Home | Current Version | Previous Version | Text Only | Print | Product List | Glossary On
Versions: 1 2 3 4 5 6 7 8 9 10 11 12 13 14 15 16 17 18 19 20 21 22 23 24 25 26 27 28 29 30 31 32 33 34 35 36 37 38 39 40 41 42 43 44 45 46 47 48 49 50
000
ASUS46 KSGX 291410
RWRSGX

SAN DIEGO HOURLY WEATHER ROUNDUP
NATIONAL WEATHER SERVICE SAN DIEGO CA
600 AM PST MON DEC 29 2014

NOTE: "FAIR" INDICATES FEW OR NO CLOUDS BELOW 12,000 FEET WITH NO
SIGNIFICANT WEATHER AND/OR OBSTRUCTIONS TO VISIBILITY.

CAZ042-043-060-061-PZZ750-775-291500-

GREATER SAN DIEGO AREA

CITY           SKY/WX    TMP DP  RH WIND       PRES   REMARKS
LINDBERGH FLD  PTCLDY    49  33  54 CALM      30.15R
NATIONAL CITY    N/A     42  35  77 CALM      30.15R
CHULA VISTA      N/A     41  37  86 CALM      30.07S
IMPERIAL BEACH CLEAR     46  34  62 E12       30.13S
BROWN FIELD    CLEAR     42  32  67 SE8       30.13R
MIRAMAR MCAS   PTCLDY    44  34  67 E9        30.12S
MONTGOMERY FLD CLEAR     42  34  73 CALM      30.13S

$$

NORTH SAN DIEGO COUNTY

CITY           SKY/WX    TMP DP  RH WIND       PRES   REMARKS
CAMP PENDLETON CLEAR     35  30  82 CALM      30.14S
OCEANSIDE AP   CLEAR     38  33  82 N5        30.14R WCI  34
OCEANSIDE HBR    N/A     42  37  80 NE7       30.16R
VISTA            N/A     38  35  87 CALM      30.13R
CARLSBAD       PTCLDY    46  35  65 E5        30.12R
DEL MAR          N/A     45  39  79 CALM      30.16R
LA JOLLA SCRIP   N/A     48  38  68 CALM      30.11R
FALLBROOK        N/A     42  39  89 CALM      30.15S
ESCONDIDO        N/A     37  33  84 CALM      30.16S
SAN MARCOS       N/A     44  37  76 E2        30.12S
POWAY            N/A     35  32  90 CALM      30.17S

$$

EAST SAN DIEGO COUNTY

CITY           SKY/WX    TMP DP  RH WIND       PRES   REMARKS
RAMONA         CLEAR     26  24  92 CALM      30.12S
SANTEE LAKES     N/A     35  32  90 N3        30.17S
LA MESA          N/A     42  32  68 E5        30.09S
JAMUL            N/A     37  32  82 CALM      30.15R
DESCANSO N       N/A     31  22  67 E6        30.09S WCI  26
MT. LAGUNA OBS   N/A     40  -1  17 N5        29.67R
CAMPO            N/A     24  19  81 NE6       30.07S WCI  17

$$

ORANGE COUNTY AND THE LOS ANGELES BASIN

CITY           SKY/WX    TMP DP  RH WIND       PRES   REMARKS
JOHN WAYNE AP  MOCLDY    47  35  63 N3        30.13R
LAGUNA BEACH     N/A     40  36  85 NW5       30.09R
LAKE FOREST FR   N/A     43  33  68 NE2       30.04S
SANTA ANA        N/A     40  36  85 CALM      30.09R
HUNTINGTON BCH   N/A     38  35  90 NE1       30.14S
LOS ALAMITOS   FAIR      39  36  87 N2        30.13S
FULLERTON      CLEAR     42  34  73 CALM      30.13R
LONG BEACH     CLEAR     41  35  79 CALM      30.13S
L.A. AP        PTCLDY    43  32  65 CALM      30.13S
L.A. DOWNTOWN  CLEAR     42  32  67 CALM      30.13R

$$

THE INLAND EMPIRE

CITY           SKY/WX    TMP DP  RH WIND       PRES   REMARKS
CORONA         CLEAR     26  26 100 CALM      30.15R
CHINO          CLEAR     33  29  85 CALM      30.15R
ONTARIO        CLEAR     39  29  67 CALM      30.13R
RIVERSIDE AP   CLEAR     37  29  72 NE6       30.14R WCI  32
RIV CYN CREST    N/A     38  37  97 S1          N/A
MORENO VALLEY    N/A     38  36  92 CALM      29.30R
MARCH ARB      CLEAR     29  27  94 CALM      30.12R
HORSETHIEF CYN   N/A     35  25  67 S3        30.15R
PERRIS           N/A     34  32  91 CALM      30.14R
MENIFEE          N/A     30  29  96 CALM      30.20S
HEMET EAST       N/A     39  23  53 CALM      30.15R
FRENCH VALLEY  FAIR      32  30  93 CALM      30.13S
TEMECULA         N/A     34  32  92 CALM      30.10F

$$

SAN BERNARDINO AND RIVERSIDE COUNTY MOUNTAINS

CITY           SKY/WX    TMP DP  RH WIND       PRES   REMARKS
BIG BEAR AP    CLEAR     28   0  29 CALM      30.12S
PINE COVE        N/A     40  -6  14 NW5       30.11S

$$

SOUTHERN DESERT INCLUDING THE COACHELLA VALLEY

CITY           SKY/WX    TMP DP  RH WIND       PRES   REMARKS
PALM SPRINGS   CLEAR     38  24  57 NW7       30.14R WCI  33
THOUSAND PALMS   N/A     33  21  61 S2        30.10R
PALM DESERT      N/A     33  26  76 CALM      28.83F
THERMAL        CLEAR     27  18  69 NW6       30.13R WCI  20
BLYTHE         CLEAR     30  21  69 NE5       30.14R WCI  25
IMPERIAL AP    CLEAR     33  20  58 SW3       30.12R
EL CENTRO NAS  PTCLDY    34  14  43 SW6       30.12S WCI  29
YUMA AZ        PTCLDY    38  18  44 NE6       30.12F WCI  33

$$

UPPER DESERT

CITY           SKY/WX    TMP DP  RH WIND       PRES   REMARKS
VICTORVILLE AP   N/A     43  23  45 NE3       30.09R
HESPERIA         N/A     31  20  64 CALM      30.30R
PALMDALE       CLEAR     41  25  53 NW13      30.10R
LANCASTER      CLEAR     43  26  51 W16G22    30.10R
EDWARDS AFB    CLEAR     28  20  71 N7        30.09R WCI  21
DAGGETT        CLEAR     25  13  60 CALM      30.13R
29 PALMS N     CLEAR     29  11  47 CALM      30.18R
NEEDLES        CLEAR     32  14  47 W7        30.15R WCI  26

$$

REGIONAL REPORTS

CITY           SKY/WX    TMP DP  RH WIND       PRES   REMARKS
SANTA BARBARA  CLEAR     39  35  86 CALM      30.12S
SANDBERG       CLEAR     41  22  46 NW28G36   30.12R
MT. WILSON       N/A     41  -8  12 SE2G9       N/A
LAS VEGAS NV   CLEAR     32  13  45 S10       30.07R WCI  24
PHOENIX AZ     PTCLDY    37  25  61 E5        30.12S WCI  33
TIJUANA        CLEAR     43  30  61 E6        30.15S
ENSENADA NW      N/A     51  32  47 CALM      30.12R

$$

OFFSHORE ISLANDS

CITY           SKY/WX    TMP DP  RH WIND       PRES   REMARKS
CATALINA ARPT  CLEAR     47  43  86 CALM      30.12R
SAN NICOLAS IS CLEAR    N/A N/A N/A NW13      30.12R

$$

MARINE AND OFFSHORE BUOY REPORTS

STATION/POSITION SKY/WX   TEMP    WIND        PRES    SWELL
                          AIR SEA DIR/SP/G            HT/PER/DIR
                          (F)     (DEG/KT/KT) (MB)    (FT/S/D)
TANNER BANKS               60 63  320/ 14/ 16 1020.0R   5/320/14
S CLEMENTE BASIN           59 63  300/  4/  6 1019.5F   3/260/15
SAN NICOLAS IS.               61                N/A     3/290/13
SO. S. ROSA ISLA           58 59  320/ 19/ 23 1019.4F   5/15
W. S. BARBARA CH           58 61  330/ 17/ 21 1019.6S   5/300/14
S. MONICA BASIN            57 62   60/  2/  4 1020.2R   2/240/13
S PEDRO CHANNEL               62                N/A     2/270/11
DANA POINT                    63                N/A     2/250/13
CMP PENDLETON NS              62                N/A     2/220/13
OCEANSIDE OFFSHR              63                N/A     2/220/13
TORREY PINES OTR              64                N/A     2/220/13
LA JOLLA 1                 49 61   90/ 12/ 14 1020.2R
MISSION BAY BUOY              63                N/A     2/230/13
SAN DIEGO BAY                 63              1020.9S
POINT LOMA SOUTH              64                N/A     2/220/13

$$



USA.gov is the U.S. government's official web portal to all federal, state and local government web resources and services.